Location: Bégole
(43.1574°N, 0.3291°E)
Time: 02:31:18
(UTC+00:00)

deb Delta 89 - Pass Details

Date: 23 February 2024
Orbit: 714 x 2021 km, 97.5° (Epoch: 13 April)

Event Time Altitude Azimuth Distance (km) Brightness Sun altitude
Rises 02:16:58 0° 12° (NNE) 5,442 ? -47.2°
Reaches altitude 10° 02:20:15 10° 15° (NNE) 4,475 ? -46.8°
Enters shadow 02:30:33 68° 61° (ENE) 2,088 ? -45.3°
